Regional Weather Roundup
Issued by NWS

Home | Current Version | Previous Version | Text Only | Print | Product List | Glossary On
Versions: 1 2 3 4 5 6 7 8 9 10 11 12 13 14 15 16 17 18 19 20 21 22 23 24 25 26 27 28 29 30 31 32 33 34 35 36 37 38 39 40 41 42 43 44 45 46 47 48 49 50
000
ASUS43 KOAX 230210
RWRNE

WEATHER ROUNDUP FOR NEBRASKA
NATIONAL WEATHER SERVICE OMAHA NE
900 PM CDT SAT JUL 22 2017

NOTES: SATELLITE DATA IS BEING USED TO AUGMENT CLOUD COVER ABOVE
       12000 FEET.
       "FAIR" INDICATES FEW OR NO CLOUDS BELOW 12,000 FEET WITH NO
       SIGNIFICANT WEATHER AND/OR OBSTRUCTIONS TO VISIBILITY.


NEZ001>004-019>022-054>056-230300-
NEBRASKA PANHANDLE

CITY           SKY/WX    TMP DP  RH WIND       PRES   REMARKS
SCOTTSBLUFF    CLEAR     81  54  39 E7        30.07R
ALLIANCE       CLEAR     77  48  35 S8        30.07R
CHADRON        PTCLDY    83  53  35 E6        30.03R
GORDON         FAIR      79  59  49 CALM      30.06R
KIMBALL        CLEAR     73  54  52 SE10      30.15S
SIDNEY         CLOUDY    80  44  27 SE9       30.13R
$$

NEZ057>060-069>072-079>082-230300-
SOUTHWEST NEBRASKA

CITY           SKY/WX    TMP DP  RH WIND       PRES   REMARKS
NORTH PLATTE   CLEAR     75  62  64 CALM      30.02R
IMPERIAL       CLEAR     76  51  41 SE8       30.05S
LEXINGTON      PTCLDY    76  68  76 CALM      29.99S
MCCOOK         PTCLDY    80  57  45 CALM      30.01R
OGALLALA       CLOUDY    79  47  32 CALM      30.06R
$$

NEZ005>010-023>029-035>040-094-230300-
NORTH CENTRAL NEBRASKA

CITY           SKY/WX    TMP DP  RH WIND       PRES   REMARKS
VALENTINE      CLEAR     91  50  24 VRB3      29.98R
AINSWORTH      CLEAR     80  63  55 SE3       29.99S
BROKEN BOW     CLEAR     73  66  78 NE6       29.99S
O`NEILL        CLEAR     78  64  62 SE5       29.97S
ORD            CLEAR     77  71  82 CALM      29.96S
THEDFORD       PTCLDY    83  52  34 SW5       30.03S
$$

NEZ041-046>049-061>064-073>077-083>087-230300-
SOUTH CENTRAL NEBRASKA

CITY           SKY/WX    TMP DP  RH WIND       PRES   REMARKS
GRAND ISLAND   CLOUDY    77  72  84 NE9       29.95R
AURORA         CLOUDY    77  72  84 CALM      29.96R
HASTINGS         N/A     79  71  76 E8        29.96R
HEBRON         CLOUDY    83  74  74 SE8       29.97R
HOLDREGE       CLOUDY    77  71  82 N7        29.98R
KEARNEY        CLOUDY    78  71  79 SE3       29.98R
YORK           CLOUDY    77  73  88 E3        29.96R
$$

NEZ011>018-030>034-042>045-230300-
NORTHEAST NEBRASKA

CITY           SKY/WX    TMP DP  RH WIND       PRES   REMARKS
NORFOLK        CLEAR     76  67  73 NE5       29.94R
ALBION         CLEAR     75  68  77 CALM      29.96R
BLAIR          CLOUDY    78  72  82 CALM      29.93R
COLUMBUS       MOCLDY    74  69  85 E6        29.93S
FREMONT        CLOUDY    78  71  78 CALM      29.92S
TEKAMAH        CLOUDY    78  73  84 N3        29.90R
WAYNE          CLEAR     75  74  99 CALM      29.93S
$$

NEZ050>053-065>068-078-088>093-230300-
SOUTHEAST NEBRASKA

CITY           SKY/WX    TMP DP  RH WIND       PRES   REMARKS
LINCOLN        CLOUDY    81  72  74 N5        29.93R
OMAHA EPPLEY   CLOUDY    80  73  79 N13       29.91R
BEATRICE       CLOUDY    83  76  80 NE6       29.93R HX  91
FALLS CITY     CLOUDY    83  78  85 W5        29.90R HX  93
NEBRASKA CITY  MOCLDY    82  80  96 N8        29.90R HX  93
PLATTSMOUTH    CLOUDY    80  75  84 N3        29.92R
$$

NEZ044-045-051>053-067-230300-
OMAHA AREA

CITY           SKY/WX    TMP DP  RH WIND       PRES   REMARKS
OMAHA EPPLEY   CLOUDY    80  73  79 N13       29.91R
BLAIR          CLOUDY    78  72  82 CALM      29.93R
FREMONT        CLOUDY    78  71  78 CALM      29.92S
MILLARD        CLOUDY    83  73  72 N3        29.92R
PLATTSMOUTH    CLOUDY    80  75  84 N3        29.92R
WAHOO          FAIR      77  73  86 CALM      29.93R
$$



USA.gov is the U.S. government's official web portal to all federal, state and local government web resources and services.